ISS6952 EDDF-LIEE

Flight info

Callsign ISS6952
Flight time 1h 46m
Altitude 33000
Route ANEKI2L/18 ANEKI Y163 NATOR DCT TRA DCT RIPUS DCT GERSA DCT SOSON DCT ODINA DCT BETEN DCT TINTO DCT LABOM/N0374F190 Q125 KOVAS
Aircraft MD82/M-SDFGIJ1RWY/S

Departure

Time 2026-05-06 19:41
Airport Frankfurt Main Airport (EDDF)

Arrival

Time 2026-05-06 21:27
Airport Cagliari Elmas Airport (LIEE)
Time Latitude Longitude Altitude Speed Heading
2026-05-06 19:01 50.04761 8.58221 346 ft 0 kts 160°
2026-05-06 19:23 50.04764 8.58219 346 ft 3 kts 164°
2026-05-06 19:23 50.04780 8.58222 357 ft 3 kts 183°
2026-05-06 19:23 50.04802 8.58224 346 ft 4 kts 195°
2026-05-06 19:24 50.04824 8.58242 357 ft 4 kts 226°
2026-05-06 19:24 50.04837 8.58274 349 ft 3 kts 249°
2026-05-06 19:24 50.04840 8.58285 348 ft 0 kts 249°
2026-05-06 19:28 50.04830 8.58244 357 ft 6 kts 250°
2026-05-06 19:28 50.04817 8.58188 365 ft 7 kts 250°
2026-05-06 19:28 50.04800 8.58118 353 ft 7 kts 250°
2026-05-06 19:28 50.04783 8.58044 349 ft 7 kts 249°
2026-05-06 19:29 50.04759 8.57971 355 ft 8 kts 235°
2026-05-06 19:29 50.04722 8.57909 355 ft 8 kts 227°
2026-05-06 19:29 50.04688 8.57809 351 ft 12 kts 251°
2026-05-06 19:29 50.04659 8.57685 351 ft 12 kts 249°
2026-05-06 19:30 50.04628 8.57558 348 ft 13 kts 249°
2026-05-06 19:30 50.04597 8.57427 355 ft 13 kts 250°
2026-05-06 19:30 50.04566 8.57295 353 ft 13 kts 249°
2026-05-06 19:30 50.04535 8.57165 350 ft 13 kts 249°
2026-05-06 19:31 50.04503 8.57035 351 ft 13 kts 249°
2026-05-06 19:31 50.04472 8.56904 352 ft 13 kts 250°
2026-05-06 19:31 50.04404 8.56619 351 ft 18 kts 250°
2026-05-06 19:32 50.04361 8.56435 351 ft 18 kts 250°
2026-05-06 19:32 50.04317 8.56253 353 ft 18 kts 248°
2026-05-06 19:32 50.04275 8.56079 346 ft 17 kts 251°
2026-05-06 19:32 50.04233 8.55906 351 ft 17 kts 248°
2026-05-06 19:33 50.04193 8.55736 354 ft 17 kts 250°
2026-05-06 19:33 50.04154 8.55568 354 ft 16 kts 249°
2026-05-06 19:33 50.04114 8.55404 351 ft 16 kts 249°
2026-05-06 19:33 50.04075 8.55242 351 ft 16 kts 249°
2026-05-06 19:34 50.04037 8.55082 353 ft 16 kts 250°
2026-05-06 19:34 50.03999 8.54925 352 ft 15 kts 250°
2026-05-06 19:34 50.03962 8.54768 352 ft 15 kts 250°
2026-05-06 19:34 50.03925 8.54617 352 ft 15 kts 249°
2026-05-06 19:35 50.03888 8.54465 353 ft 15 kts 250°
2026-05-06 19:35 50.03842 8.54324 349 ft 15 kts 235°
2026-05-06 19:35 50.03793 8.54188 355 ft 14 kts 250°
2026-05-06 19:35 50.03759 8.54042 355 ft 14 kts 249°
2026-05-06 19:36 50.03724 8.53898 349 ft 14 kts 249°
2026-05-06 19:36 50.03689 8.53754 352 ft 14 kts 249°
2026-05-06 19:36 50.03654 8.53612 351 ft 14 kts 248°
2026-05-06 19:36 50.03618 8.53470 351 ft 14 kts 248°
2026-05-06 19:37 50.03583 8.53329 351 ft 14 kts 250°
2026-05-06 19:37 50.03551 8.53188 346 ft 14 kts 249°
2026-05-06 19:37 50.03517 8.53049 351 ft 14 kts 250°
2026-05-06 19:37 50.03495 8.52955 352 ft 14 kts 249°
2026-05-06 19:38 50.03448 8.52785 356 ft 12 kts 248°
2026-05-06 19:38 50.03438 8.52745 353 ft 0 kts 248°
2026-05-06 19:39 50.03434 8.52728 356 ft 5 kts 249°
2026-05-06 19:39 50.03421 8.52674 354 ft 5 kts 249°
2026-05-06 19:39 50.03396 8.52619 357 ft 7 kts 219°
2026-05-06 19:39 50.03348 8.52598 348 ft 0 kts 183°
2026-05-06 19:40 50.03345 8.52597 348 ft 3 kts 182°
2026-05-06 19:40 50.03194 8.52598 346 ft 45 kts 179°
2026-05-06 19:40 50.02658 8.52603 350 ft 110 kts 179°
2026-05-06 19:40 50.01696 8.52604 352 ft 165 kts 180°
2026-05-06 19:41 50.00461 8.52589 777 ft 179 kts 183°
2026-05-06 19:41 49.99240 8.52663 1701 ft 177 kts 179°
2026-05-06 19:41 49.98300 8.52755 2112 ft 186 kts 180°
2026-05-06 19:41 49.96992 8.52833 2770 ft 192 kts 181°
2026-05-06 19:42 49.95661 8.52897 3480 ft 190 kts 181°
2026-05-06 19:42 49.94720 8.52954 3613 ft 213 kts 181°
2026-05-06 19:42 49.93157 8.53059 3952 ft 233 kts 180°
2026-05-06 19:42 49.91436 8.53184 4017 ft 259 kts 180°
2026-05-06 19:43 49.89646 8.53313 4244 ft 260 kts 180°
2026-05-06 19:43 49.87859 8.53453 5119 ft 254 kts 180°
2026-05-06 19:43 49.86064 8.53595 5885 ft 256 kts 180°
2026-05-06 19:43 49.84270 8.53732 6545 ft 260 kts 180°
2026-05-06 19:44 49.82455 8.53868 7215 ft 263 kts 180°
2026-05-06 19:44 49.80643 8.54000 7892 ft 265 kts 180°
2026-05-06 19:44 49.78768 8.54130 8553 ft 268 kts 180°
2026-05-06 19:44 49.76892 8.54104 9129 ft 273 kts 186°
2026-05-06 19:45 49.74964 8.53876 9595 ft 282 kts 188°
2026-05-06 19:45 49.72992 8.53588 10031 ft 291 kts 188°
2026-05-06 19:45 49.70911 8.53267 10187 ft 309 kts 188°
2026-05-06 19:45 49.68713 8.52925 10362 ft 326 kts 188°
2026-05-06 19:46 49.66403 8.52574 10554 ft 340 kts 187°
2026-05-06 19:46 49.64018 8.52227 10892 ft 348 kts 187°
2026-05-06 19:46 49.61600 8.51896 11415 ft 350 kts 186°
2026-05-06 19:46 49.59171 8.51577 11968 ft 352 kts 186°
2026-05-06 19:47 49.56713 8.51262 12510 ft 355 kts 186°
2026-05-06 19:47 49.54243 8.50945 13061 ft 359 kts 186°
2026-05-06 19:47 49.51750 8.50626 13631 ft 362 kts 186°
2026-05-06 19:47 49.49226 8.50303 14154 ft 365 kts 186°
2026-05-06 19:48 49.46694 8.49975 14716 ft 366 kts 186°
2026-05-06 19:48 49.44158 8.49647 15298 ft 366 kts 186°
2026-05-06 19:48 49.41608 8.49316 15806 ft 369 kts 185°
2026-05-06 19:48 49.39003 8.48977 16305 ft 372 kts 185°
2026-05-06 19:49 49.36413 8.48641 16800 ft 375 kts 185°
2026-05-06 19:49 49.33808 8.48302 17332 ft 377 kts 185°
2026-05-06 19:49 49.31189 8.47955 17861 ft 379 kts 185°
2026-05-06 19:49 49.28552 8.47608 18311 ft 382 kts 185°
2026-05-06 19:50 49.25894 8.47264 18745 ft 384 kts 185°
2026-05-06 19:50 49.23193 8.46917 19184 ft 387 kts 185°
2026-05-06 19:50 49.20526 8.46577 19634 ft 389 kts 185°
2026-05-06 19:50 49.17825 8.46237 20065 ft 391 kts 185°
2026-05-06 19:51 49.15115 8.45892 20557 ft 392 kts 185°
2026-05-06 19:51 49.12379 8.45534 20879 ft 397 kts 185°
2026-05-06 19:51 49.09620 8.45170 21261 ft 400 kts 185°
2026-05-06 19:51 49.06838 8.44801 21686 ft 402 kts 186°
2026-05-06 19:52 49.04066 8.44137 22118 ft 404 kts 192°
2026-05-06 19:52 49.01281 8.43176 22579 ft 406 kts 193°
2026-05-06 19:52 48.98523 8.42145 22923 ft 411 kts 193°
2026-05-06 19:52 48.95767 8.41110 23179 ft 416 kts 193°
2026-05-06 19:53 48.92908 8.40049 23563 ft 418 kts 193°
2026-05-06 19:53 48.90073 8.39022 23955 ft 419 kts 193°
2026-05-06 19:53 48.87225 8.38016 24354 ft 420 kts 192°
2026-05-06 19:53 48.84352 8.37021 24724 ft 422 kts 192°
2026-05-06 19:54 48.81452 8.36027 25053 ft 425 kts 192°
2026-05-06 19:54 48.78609 8.35051 25432 ft 426 kts 192°
2026-05-06 19:54 48.75724 8.34030 25849 ft 426 kts 192°
2026-05-06 19:54 48.72844 8.32989 26240 ft 427 kts 192°
2026-05-06 19:55 48.69944 8.31931 26590 ft 429 kts 193°
2026-05-06 19:55 48.67020 8.30859 26950 ft 430 kts 192°
2026-05-06 19:55 48.64122 8.29798 27312 ft 432 kts 192°
2026-05-06 19:55 48.61201 8.28735 27588 ft 436 kts 193°
2026-05-06 19:56 48.58239 8.27658 27932 ft 437 kts 193°
2026-05-06 19:56 48.55278 8.26580 28420 ft 436 kts 193°
2026-05-06 19:56 48.52352 8.25517 28979 ft 432 kts 193°
2026-05-06 19:56 48.49414 8.24610 29471 ft 430 kts 184°
2026-05-06 19:57 48.46431 8.24770 29887 ft 428 kts 172°
2026-05-06 19:57 48.43508 8.25467 30351 ft 424 kts 170°
2026-05-06 19:57 48.40613 8.26255 30769 ft 421 kts 170°
2026-05-06 19:57 48.38604 8.26812 31067 ft 419 kts 170°
2026-05-06 19:58 48.37143 8.27213 31197 ft 420 kts 171°
2026-05-06 19:58 48.34218 8.27988 31365 ft 423 kts 171°
2026-05-06 19:58 48.31312 8.28726 31565 ft 424 kts 172°
2026-05-06 19:58 48.28402 8.29437 31879 ft 423 kts 172°
2026-05-06 19:59 48.25507 8.30129 32240 ft 421 kts 172°
2026-05-06 19:59 48.22621 8.30815 32572 ft 419 kts 172°
2026-05-06 19:59 48.19744 8.31497 32744 ft 421 kts 173°
2026-05-06 19:59 48.16832 8.32186 32828 ft 423 kts 173°
2026-05-06 20:00 48.11024 8.33579 32884 ft 421 kts 173°
2026-05-06 20:00 48.05223 8.34986 32897 ft 418 kts 173°
2026-05-06 20:01 47.99534 8.36360 32907 ft 418 kts 173°
2026-05-06 20:01 47.93685 8.37769 32904 ft 419 kts 173°
2026-05-06 20:02 47.87980 8.39147 32912 ft 419 kts 173°
2026-05-06 20:02 47.82238 8.40527 32914 ft 417 kts 173°
2026-05-06 20:03 47.76520 8.41894 32911 ft 416 kts 173°
2026-05-06 20:03 47.70800 8.43266 32903 ft 415 kts 174°
2026-05-06 20:04 47.65146 8.44407 32923 ft 405 kts 178°
2026-05-06 20:04 47.59567 8.45141 32933 ft 401 kts 178°
2026-05-06 20:05 47.53975 8.45878 32936 ft 406 kts 178°
2026-05-06 20:05 47.48338 8.46683 32936 ft 408 kts 178°
2026-05-06 20:06 47.42707 8.47531 32935 ft 405 kts 178°
2026-05-06 20:06 47.37110 8.48364 32935 ft 403 kts 178°
2026-05-06 20:07 47.31484 8.49190 32938 ft 404 kts 178°
2026-05-06 20:07 47.25879 8.50008 32931 ft 405 kts 178°
2026-05-06 20:08 47.20308 8.50817 32928 ft 405 kts 178°
2026-05-06 20:08 47.14659 8.51640 32928 ft 405 kts 178°
2026-05-06 20:09 47.09039 8.52460 32928 ft 406 kts 178°
2026-05-06 20:09 47.03417 8.53283 32916 ft 403 kts 178°
2026-05-06 20:10 46.97876 8.54086 32925 ft 398 kts 179°
2026-05-06 20:10 46.92367 8.54871 32924 ft 398 kts 179°
2026-05-06 20:11 46.86846 8.55676 32932 ft 399 kts 178°
2026-05-06 20:11 46.81321 8.56457 32935 ft 399 kts 179°
2026-05-06 20:12 46.75792 8.57253 32936 ft 398 kts 179°
2026-05-06 20:12 46.71205 8.57926 32923 ft 392 kts 180°
2026-05-06 20:13 46.65856 8.58697 32947 ft 382 kts 179°
2026-05-06 20:13 46.60536 8.59432 32921 ft 388 kts 180°
2026-05-06 20:14 46.55095 8.60185 32927 ft 396 kts 179°
2026-05-06 20:14 46.49594 8.60971 32926 ft 393 kts 179°
2026-05-06 20:15 46.44179 8.61753 32917 ft 389 kts 179°
2026-05-06 20:15 46.38775 8.62518 32927 ft 391 kts 180°
2026-05-06 20:16 46.33394 8.63708 32936 ft 400 kts 165°
2026-05-06 20:16 46.28225 8.67040 32945 ft 407 kts 162°
2026-05-06 20:17 46.23041 8.70225 32870 ft 401 kts 165°
2026-05-06 20:17 46.17839 8.73134 32918 ft 403 kts 166°
2026-05-06 20:18 46.12571 8.75937 32931 ft 404 kts 166°
2026-05-06 20:18 46.07304 8.78758 32929 ft 404 kts 167°
2026-05-06 20:19 46.02046 8.81577 32914 ft 403 kts 167°
2026-05-06 20:19 45.96787 8.84395 32923 ft 403 kts 167°
2026-05-06 20:20 45.91532 8.87205 32939 ft 402 kts 167°
2026-05-06 20:20 45.86281 8.90010 32934 ft 404 kts 167°
2026-05-06 20:21 45.81144 8.92754 32896 ft 405 kts 167°
2026-05-06 20:21 45.75862 8.95584 32907 ft 405 kts 167°
2026-05-06 20:22 45.70545 8.98424 32892 ft 406 kts 167°
2026-05-06 20:22 45.65316 9.01208 32898 ft 407 kts 167°
2026-05-06 20:23 45.60023 9.04027 32869 ft 404 kts 167°
2026-05-06 20:23 45.54649 9.06875 32893 ft 402 kts 167°
2026-05-06 20:24 45.49397 9.09633 32902 ft 404 kts 167°
2026-05-06 20:24 45.44121 9.12409 32902 ft 405 kts 167°
2026-05-06 20:25 45.38832 9.15199 32888 ft 405 kts 167°
2026-05-06 20:25 45.33553 9.17984 32898 ft 404 kts 167°
2026-05-06 20:26 45.28285 9.20753 32897 ft 403 kts 167°
2026-05-06 20:26 45.22991 9.23528 32875 ft 403 kts 167°
2026-05-06 20:27 45.17741 9.26270 32868 ft 405 kts 167°
2026-05-06 20:27 45.12422 9.29039 32868 ft 405 kts 167°
2026-05-06 20:28 45.07245 9.31730 32878 ft 403 kts 167°
2026-05-06 20:28 45.01991 9.34458 32880 ft 402 kts 168°
2026-05-06 20:29 44.96742 9.37178 32878 ft 403 kts 168°
2026-05-06 20:29 44.91446 9.39916 32886 ft 406 kts 167°
2026-05-06 20:30 44.83504 9.44028 32893 ft 404 kts 168°
2026-05-06 20:31 44.78233 9.46747 32894 ft 403 kts 168°
2026-05-06 20:31 44.72971 9.49442 32909 ft 403 kts 168°
2026-05-06 20:32 44.67701 9.52136 32907 ft 402 kts 168°
2026-05-06 20:32 44.62456 9.54819 32918 ft 401 kts 168°
2026-05-06 20:33 44.57190 9.57507 32912 ft 401 kts 168°
2026-05-06 20:33 44.51939 9.60181 32925 ft 406 kts 168°
2026-05-06 20:34 44.46596 9.62904 32926 ft 405 kts 168°
2026-05-06 20:34 44.41321 9.65596 32936 ft 403 kts 168°
2026-05-06 20:35 44.36080 9.68245 32932 ft 403 kts 168°
2026-05-06 20:35 44.30762 9.70916 32949 ft 406 kts 168°
2026-05-06 20:36 44.25455 9.73596 32954 ft 405 kts 168°
2026-05-06 20:36 44.20166 9.76262 32959 ft 403 kts 168°
2026-05-06 20:37 44.14883 9.78924 32958 ft 405 kts 168°
2026-05-06 20:37 44.09581 9.81583 32960 ft 406 kts 168°
2026-05-06 20:38 44.04263 9.84247 32944 ft 405 kts 168°
2026-05-06 20:38 43.98952 9.86901 32946 ft 406 kts 168°
2026-05-06 20:39 43.93632 9.89545 32959 ft 406 kts 168°
2026-05-06 20:39 43.88301 9.92193 32961 ft 407 kts 168°
2026-05-06 20:40 43.82964 9.94846 32959 ft 408 kts 168°
2026-05-06 20:40 43.78493 9.97067 32940 ft 407 kts 168°
2026-05-06 20:41 43.73268 9.99657 32956 ft 406 kts 168°
2026-05-06 20:41 43.67974 10.02276 32958 ft 405 kts 168°
2026-05-06 20:42 43.63111 10.04678 32958 ft 406 kts 168°
2026-05-06 20:42 43.57781 10.07304 32934 ft 407 kts 168°
2026-05-06 20:43 43.52440 10.09916 32953 ft 408 kts 168°
2026-05-06 20:43 43.47264 10.12438 32955 ft 407 kts 171°
2026-05-06 20:43 43.44533 10.13012 32968 ft 391 kts 189°
2026-05-06 20:44 43.41895 10.12225 32976 ft 381 kts 205°
2026-05-06 20:44 43.36940 10.09555 32944 ft 385 kts 201°
2026-05-06 20:45 43.31705 10.07747 32957 ft 390 kts 196°
2026-05-06 20:45 43.26376 10.06392 32958 ft 389 kts 194°
2026-05-06 20:46 43.21044 10.05174 32958 ft 388 kts 194°
2026-05-06 20:46 43.15718 10.03945 32946 ft 390 kts 194°
2026-05-06 20:47 43.10298 10.02661 32947 ft 394 kts 194°
2026-05-06 20:47 43.04917 10.01379 32950 ft 393 kts 194°
2026-05-06 20:48 42.99540 10.00104 32955 ft 391 kts 194°
2026-05-06 20:48 42.94166 9.98827 32948 ft 394 kts 194°
2026-05-06 20:49 42.88744 9.97537 32948 ft 397 kts 194°
2026-05-06 20:49 42.83310 9.96251 32941 ft 396 kts 194°
2026-05-06 20:50 42.77898 9.94973 32938 ft 394 kts 194°
2026-05-06 20:50 42.72501 9.93695 32946 ft 396 kts 194°
2026-05-06 20:51 42.67068 9.92412 32942 ft 398 kts 194°
2026-05-06 20:51 42.61616 9.91131 32946 ft 398 kts 194°
2026-05-06 20:52 42.56162 9.89855 32933 ft 397 kts 194°
2026-05-06 20:52 42.50713 9.88579 32945 ft 398 kts 194°
2026-05-06 20:53 42.45249 9.87297 32947 ft 399 kts 194°
2026-05-06 20:53 42.39780 9.86017 32946 ft 400 kts 194°
2026-05-06 20:54 42.34299 9.84737 32943 ft 400 kts 194°
2026-05-06 20:54 42.28828 9.83463 32942 ft 398 kts 194°
2026-05-06 20:55 42.23380 9.82199 32945 ft 397 kts 194°
2026-05-06 20:55 42.17944 9.80941 32933 ft 396 kts 194°
2026-05-06 20:56 42.12497 9.79678 32939 ft 398 kts 194°
2026-05-06 20:56 42.07024 9.78410 32945 ft 400 kts 194°
2026-05-06 20:57 42.01541 9.77144 32952 ft 399 kts 194°
2026-05-06 20:57 41.96108 9.75893 32942 ft 398 kts 194°
2026-05-06 20:58 41.90672 9.74641 32951 ft 400 kts 194°
2026-05-06 20:58 41.85223 9.73386 32955 ft 402 kts 194°
2026-05-06 20:59 41.79778 9.72131 32955 ft 402 kts 194°
2026-05-06 20:59 41.74273 9.70877 32950 ft 401 kts 194°
2026-05-06 21:00 41.68770 9.69621 32947 ft 402 kts 194°
2026-05-06 21:00 41.63254 9.68362 32950 ft 402 kts 194°
2026-05-06 21:01 41.57738 9.67107 32937 ft 402 kts 194°
2026-05-06 21:01 41.52219 9.65856 32955 ft 402 kts 194°
2026-05-06 21:02 41.46698 9.64602 32949 ft 402 kts 194°
2026-05-06 21:02 41.41177 9.63351 32961 ft 403 kts 194°
2026-05-06 21:03 41.35649 9.62108 32953 ft 403 kts 194°
2026-05-06 21:03 41.30112 9.60864 32963 ft 404 kts 194°
2026-05-06 21:04 41.24578 9.59615 32968 ft 404 kts 194°
2026-05-06 21:04 41.19030 9.58365 32973 ft 405 kts 194°
2026-05-06 21:05 41.13464 9.57115 32971 ft 405 kts 194°
2026-05-06 21:05 41.07904 9.55868 32983 ft 406 kts 194°
2026-05-06 21:06 41.02298 9.54615 32990 ft 406 kts 194°
2026-05-06 21:06 40.96736 9.53381 32993 ft 405 kts 194°
2026-05-06 21:07 40.91184 9.52135 32984 ft 406 kts 194°
2026-05-06 21:07 40.85553 9.50885 32990 ft 408 kts 194°
2026-05-06 21:08 40.79944 9.49641 32979 ft 408 kts 194°
2026-05-06 21:08 40.74360 9.48404 32980 ft 407 kts 194°
2026-05-06 21:09 40.68767 9.47163 32778 ft 412 kts 194°
2026-05-06 21:09 40.65908 9.46527 32252 ft 418 kts 194°
2026-05-06 21:09 40.63053 9.45897 31708 ft 415 kts 194°
2026-05-06 21:09 40.60215 9.45276 31130 ft 412 kts 194°
2026-05-06 21:10 40.57389 9.44652 30551 ft 411 kts 194°
2026-05-06 21:10 40.54572 9.44020 29956 ft 412 kts 194°
2026-05-06 21:10 40.51750 9.43383 29289 ft 411 kts 194°
2026-05-06 21:10 40.49887 9.42963 28902 ft 409 kts 194°
2026-05-06 21:11 40.46143 9.42134 28123 ft 406 kts 194°
2026-05-06 21:11 40.44303 9.41733 27742 ft 403 kts 194°
2026-05-06 21:11 40.41548 9.41143 27186 ft 400 kts 194°
2026-05-06 21:11 40.38820 9.40551 26641 ft 395 kts 196°
2026-05-06 21:12 40.36203 9.39596 26100 ft 389 kts 204°
2026-05-06 21:12 40.33687 9.38350 25526 ft 385 kts 206°
2026-05-06 21:12 40.31205 9.37045 24936 ft 383 kts 206°
2026-05-06 21:12 40.28745 9.35744 24324 ft 380 kts 206°
2026-05-06 21:13 40.26300 9.34457 23718 ft 378 kts 206°
2026-05-06 21:13 40.23832 9.33173 22996 ft 376 kts 205°
2026-05-06 21:13 40.21442 9.31945 22334 ft 373 kts 205°
2026-05-06 21:13 40.19008 9.30709 21720 ft 368 kts 205°
2026-05-06 21:14 40.16627 9.29510 21119 ft 364 kts 204°
2026-05-06 21:14 40.14271 9.28333 20559 ft 361 kts 204°
2026-05-06 21:14 40.11936 9.27171 19982 ft 357 kts 204°
2026-05-06 21:14 40.09627 9.26021 19391 ft 354 kts 204°
2026-05-06 21:15 40.07417 9.24918 18854 ft 351 kts 204°
2026-05-06 21:15 40.05144 9.23783 18270 ft 348 kts 203°
2026-05-06 21:15 40.02890 9.22659 17628 ft 346 kts 203°
2026-05-06 21:15 40.00654 9.21547 17039 ft 342 kts 203°
2026-05-06 21:16 39.98446 9.20447 16471 ft 338 kts 203°
2026-05-06 21:16 39.96262 9.19358 15940 ft 334 kts 202°
2026-05-06 21:16 39.94103 9.18282 15409 ft 330 kts 202°
2026-05-06 21:16 39.91965 9.17218 14864 ft 327 kts 202°
2026-05-06 21:17 39.89855 9.16162 14333 ft 323 kts 202°
2026-05-06 21:17 39.87760 9.15124 13794 ft 321 kts 202°
2026-05-06 21:17 39.85674 9.14119 13230 ft 318 kts 199°
2026-05-06 21:17 39.83553 9.13296 12865 ft 311 kts 196°
2026-05-06 21:18 39.81452 9.12598 12537 ft 316 kts 195°
2026-05-06 21:18 39.79244 9.11893 12190 ft 334 kts 195°
2026-05-06 21:18 39.76992 9.11178 11804 ft 333 kts 194°
2026-05-06 21:18 39.74749 9.10466 11412 ft 331 kts 195°
2026-05-06 21:19 39.72522 9.09748 11001 ft 328 kts 195°
2026-05-06 21:19 39.70327 9.09032 10621 ft 322 kts 195°
2026-05-06 21:19 39.68190 9.08327 10295 ft 311 kts 195°
2026-05-06 21:19 39.66147 9.07644 10135 ft 295 kts 195°
2026-05-06 21:20 39.64198 9.07076 10056 ft 279 kts 186°
2026-05-06 21:20 39.62274 9.06995 9793 ft 276 kts 180°
2026-05-06 21:20 39.60319 9.07060 9053 ft 286 kts 179°
2026-05-06 21:20 39.58283 9.07146 8361 ft 292 kts 179°
2026-05-06 21:21 39.56245 9.07234 7746 ft 295 kts 178°
2026-05-06 21:21 39.54204 9.07318 7351 ft 289 kts 180°
2026-05-06 21:21 39.52277 9.06870 7046 ft 280 kts 203°
2026-05-06 21:21 39.50514 9.05714 6466 ft 284 kts 210°
2026-05-06 21:22 39.48788 9.04431 5866 ft 287 kts 210°
2026-05-06 21:22 39.47027 9.03118 5256 ft 289 kts 210°
2026-05-06 21:22 39.45294 9.01826 4645 ft 284 kts 210°
2026-05-06 21:22 39.43600 9.00578 4067 ft 277 kts 210°
2026-05-06 21:23 39.41939 8.99381 3530 ft 270 kts 209°
2026-05-06 21:23 39.40335 8.98245 3240 ft 255 kts 209°
2026-05-06 21:23 39.38828 8.97189 3126 ft 240 kts 209°
2026-05-06 21:23 39.37399 8.96190 3020 ft 226 kts 209°
2026-05-06 21:24 39.35977 8.95508 2979 ft 213 kts 187°
2026-05-06 21:24 39.34537 8.95635 2668 ft 208 kts 165°
2026-05-06 21:24 39.33184 8.96368 2219 ft 212 kts 154°
2026-05-06 21:24 39.31913 8.97325 1765 ft 204 kts 142°
2026-05-06 21:25 39.30889 8.98482 1449 ft 186 kts 135°
2026-05-06 21:25 39.30014 8.99613 1140 ft 169 kts 136°
2026-05-06 21:25 39.29228 9.00619 953 ft 150 kts 137°
2026-05-06 21:25 39.28474 9.01542 676 ft 151 kts 137°
2026-05-06 21:26 39.27711 9.02451 466 ft 144 kts 139°
2026-05-06 21:26 39.26970 9.03322 278 ft 147 kts 139°
2026-05-06 21:26 39.26224 9.04184 91 ft 139 kts 140°
2026-05-06 21:26 39.25535 9.04981 16 ft 120 kts 137°
2026-05-06 21:27 39.25035 9.05562 17 ft 74 kts 137°
2026-05-06 21:27 39.24735 9.05913 16 ft 45 kts 138°
2026-05-06 21:27 39.24507 9.06176 14 ft 43 kts 138°
2026-05-06 21:27 39.24317 9.06391 16 ft 31 kts 139°
2026-05-06 21:28 39.24285 9.06535 18 ft 16 kts 25°
2026-05-06 21:28 39.24360 9.06574 16 ft 9 kts 357°
2026-05-06 21:28 39.24410 9.06552 16 ft 8 kts 325°
2026-05-06 21:28 39.24470 9.06485 16 ft 16 kts 317°
2026-05-06 21:29 39.24551 9.06386 16 ft 17 kts 316°
2026-05-06 21:29 39.24638 9.06280 15 ft 17 kts 316°
2026-05-06 21:29 39.24728 9.06173 16 ft 18 kts 320°
2026-05-06 21:29 39.24827 9.06071 16 ft 18 kts 321°
2026-05-06 21:30 39.24924 9.05961 16 ft 19 kts 317°
2026-05-06 21:30 39.25022 9.05846 16 ft 18 kts 318°
2026-05-06 21:30 39.25123 9.05792 18 ft 14 kts 31°
2026-05-06 21:30 39.25157 9.05889 16 ft 11 kts 110°
2026-05-06 21:31 39.25158 9.05940 16 ft 6 kts 68°
2026-05-06 21:31 39.25182 9.05987 16 ft 7 kts 53°
2026-05-06 21:31 39.25213 9.06014 16 ft 4 kts 360°
2026-05-06 21:31 39.25241 9.06000 17 ft 0 kts 328°
2026-05-06 21:32 39.25246 9.05995 16 ft 2 kts 326°
2026-05-06 21:32 39.25263 9.05979 16 ft 1 kts 323°
2026-05-06 21:32 39.25264 9.05978 16 ft 0 kts 323°